021111 A46  0.0   0.2-    030104 204  0.3-  0.1-    030425 246  1.0+  0.1-  

021111 A46  0.6+  0.8-    030104 349  0.8-  0.4+    030425 246  1.0+  0.1-  

021111 A46  0.4+  0.1+    030104 349  0.9-  0.3+    030425 246  0.8+  0.1-  

021111 A46  0.1-  0.4-    030104 349  0.8-  0.9+    030425 246  1.0+  0.3-  

021111 A46  0.0   0.1+    030104 349  0.9-  0.7+    030501 H41 (5.6-  0.1+) 

021111 670  0.4+  0.9-    030107 360  0.2+  0.7-    030501 608  0.0   0.5+  

021112 360  1.5+  1.0-    030107 360  0.3+  0.7-    030501 608  0.3+  0.7-  

021112 360  0.8+  1.2-    030112 A46  0.2+  0.1-    030501 608  0.2+  0.4-  

021112 360  0.9+  0.9-    030112 A46  0.1-  0.0     030506 704  1.7+  0.1-  

021113 349  0.2+  0.1-    030112 A46  0.6-  0.4-    030506 704  1.0+  0.4+  

021113 349  1.1+  1.1-    030112 235  0.2+  0.4-    030506 704  1.3+  0.1+  

021113 349  0.3+  0.2-    030113 049 (2.3-  3.7+)   030506 H41 (5.2-  3.6-) 

021113 349  0.3+  0.1-    030113 049 (2.2-  3.3+)   030506 H41  0.5+  1.2+  

021113 349  0.9+  0.2-    030113 049 (2.1-  3.6+)   030511 691  0.7+  0.3-  

021113 349  0.2+  0.1+    030113 049 (1.9-  3.4+)   030511 691  0.1+  0.6-  

021115 750  0.4+  0.7-    030113 049 (1.7-  3.5+)   030511 691  1.0+  0.3-  

021115 750  0.4+  0.6-    030113 049 (1.6-  2.8+)   030511 H41 (3.6-  2.4-) 

021115 750  0.1+  0.6-    030116 118  1.0+  0.2+    030522 H41  0.9-  1.2+  

021117 232  0.9+  0.8+    030116 118  0.1+  0.5+                            

021117 232  0.4+  1.0+    030116 118  0.2+  0.2+                            



NAKANO

         **** Don't distribute anyone except personal use only ****

                (C) Copyright 2003 OAA/ComputingSection

write mail from CFAD0::NAKANO on 2003-11-20 02:00:59(JST).

 

    C/2002 U2 (LINEAR)                                                    

Epoch 2003 Jan. 1.0 TT = JDT 2452640.5  

T 2002 Dec. 31.98552 TT                                 Nakano

q   1.2086318            (2000.0)            P               Q

z  -0.0000326      Peri.   95.84690     -0.39903485     -0.74280816

 +/-0.0000030      Node    38.77660     -0.03317921     -0.57421300

e   1.0000393      Incl.   59.13570     +0.91633527     -0.34426076

From 321 observations 2002 Oct. 25-2003 Apr. 25, mean residual 0".77.

   (1/a)org.= +0.001028, (1/a)fut.= +0.000670 (+/-0.000003), Q= 7.



NAKANO

         **** Don't distribute anyone except personal use only ****

                (C) Copyright 2003 OAA/ComputingSection

write mail from CFAD0::NAKANO on 2003-04-29 01:22:29(JST).

 

    C/2002 U2 (LINEAR)                                                    

Epoch 2003 Jan. 1.0 TT = JDT 2452640.5  

T 2002 Dec. 31.98574 TT                                 Nakano

q   1.2086129            (2000.0)            P               Q

z  +0.0000286      Peri.   95.84706     -0.39903955     -0.74281874

 +/-0.0000099      Node    38.77552     -0.03316001     -0.57420143

e   0.9999654      Incl.   59.13473     +0.91633392     -0.34425724

From 280 observations 2002 Oct. 25-2003 Feb. 13, mean residual 0".66.

   (1/a)org.= +0.001089, (1/a)fut.= +0.000731 (+/-0.000010), Q= 6.



NAKANO

         **** Don't distribute anyone except personal use only ****

                (C) Copyright 2003 OAA/ComputingSection

write mail from CFAD0::NAKANO on 2003-02-19 01:17:07(JST).

 



    C/2002 U2 (LINEAR)                                                    

T 2002 Dec. 31.98422 TT                                 Nakano

q   1.2086269            (2000.0)            P               Q

                   Peri.   95.84547     -0.39901889     -0.74282247

                   Node    38.77619     -0.03315439     -0.57420967

e   1.0            Incl.   59.13515     +0.91634312     -0.34423543

From 220 observations 2002 Oct. 25-2002 Dec. 30.



NAKANO

         **** Don't distribute anyone except personal use only ****

                (C) Copyright 2003 OAA/ComputingSection

write mail from CFAD0::NAKANO on 2003-01-07 05:12:31(JST).

 



    C/2002 U2 (LINEAR)                                                    

T 2002 Dec. 31.98372 TT                                 Nakano

q   1.2086307            (2000.0)            P               Q

                   Peri.   95.84491     -0.39901176     -0.74282704

                   Node    38.77613     -0.03314762     -0.57420934

e   1.0            Incl.   59.13510     +0.91634647     -0.34422613

From 154 observations 2002 Oct. 25-Dec. 10.



NAKANO

         **** Don't distribute anyone except personal use only ****

                (C) Copyright 2002 OAA/ComputingSection

write mail from CFAD0::NAKANO on 2002-12-16 23:29:08(JST).

 

◎C/2002 U2の軌道と予報位置です



 秦野の浅見敦夫氏の11月28日の CCD全光度は15.1等,上尾の門田健一氏の

12月2日のそれは15.2等でした.



    C/2002 U2 (LINEAR)                                                    

T 2002 Dec. 31.98388 TT                                 Nakano

q   1.2086291            (2000.0)            P               Q

                   Peri.   95.84514     -0.39901501     -0.74282629

                   Node    38.77604     -0.03314828     -0.57420837

e   1.0            Incl.   59.13502     +0.91634503     -0.34422936

From 131 observations 2002 Oct. 25-Dec. 2.



 

Date/        TT  R.A.(2000) Decl.     Delta   r     Daily motion  Mag.  Moon Age

              h    h  m       。  ,                      ,  / PA 。  m1      。

2002 Dec.  1 18  15 54.60  +56 03.2   1.066  1.297    55.6 / 152  14.8   69  .09

           2 18  15 57.65  +55 14.0   1.071  1.291    54.5 / 152  14.8   72  .03

           3 18  16 00.54  +54 25.5   1.077  1.286    53.5 / 153  14.8   75  .00

           4 18  16 03.28  +53 37.8   1.082  1.281    52.5 / 153  14.7   79  .00

           5 18  16 05.89  +52 50.8   1.087  1.276    51.5 / 154  14.7   83  .03

           6 18  16 08.36  +52 04.5   1.093  1.271    50.5 / 154  14.7   88  .08

           7 18  16 10.72  +51 19.1   1.098  1.266    49.5 / 154  14.7   92  .14

           8 18  16 12.98  +50 34.4   1.104  1.262    48.6 / 155  14.7   97  .23

           9 18  16 15.13  +49 50.4   1.109  1.257    47.6 / 155  14.7  101  .32

          10 18  16 17.18  +49 07.2   1.115  1.253    46.7 / 155  14.7  105  .41

          11 18  16 19.15  +48 24.7   1.120  1.249    45.8 / 155  14.7  109  .51

          12 18  16 21.04  +47 43.0   1.126  1.245    44.9 / 156  14.7  112  .60

          13 18  16 22.84  +47 02.0   1.131  1.242    44.1 / 156  14.7  114  .69

          14 18  16 24.58  +46 21.7   1.136  1.238    43.2 / 156  14.7  116  .78

          15 18  16 26.24  +45 42.1   1.142  1.235    42.4 / 156  14.7  117  .85

          16 18  16 27.84  +45 03.3   1.147  1.232    41.6 / 157  14.7  116  .91

          17 18  16 29.38  +44 25.0   1.152  1.229    40.8 / 157  14.7  115  .96

          18 18  16 30.86  +43 47.5   1.158  1.226    40.0 / 157  14.7  113  .99

          19 18  16 32.29  +43 10.6   1.163  1.224    39.3 / 157  14.7  110 1.00

          20 18  16 33.66  +42 34.3   1.168  1.221    38.6 / 157  14.7  105  .99

          21 18  16 34.98  +41 58.7   1.173  1.219    37.8 / 158  14.7  100  .96

          22 18  16 36.26  +41 23.6   1.178  1.217    37.2 / 158  14.7   95  .91

          23 18  16 37.49  +40 49.2   1.182  1.215    36.5 / 158  14.7   88  .83

          24 18  16 38.68  +40 15.3   1.187  1.214    35.8 / 158  14.7   82  .74

          25 18  16 39.83  +39 42.0   1.191  1.213    35.2 / 159  14.7   76  .64

          26 18  16 40.94  +39 09.2   1.196  1.211    34.6 / 159  14.7   70  .53

          27 18  16 42.01  +38 37.0   1.200  1.210    33.9 / 159  14.7   65  .42

          28 18  16 43.04  +38 05.3   1.204  1.210    33.4 / 159  14.7   61  .31

          29 18  16 44.04  +37 34.1   1.208  1.209    32.8 / 159  14.7   58  .21

          30 18  16 45.00  +37 03.5   1.212  1.209    32.2 / 160  14.7   58  .12

          31 18  16 45.94  +36 33.3   1.216  1.209    31.7 / 160  14.7   59  .06

2003 Jan.  1 18  16 46.84  +36 03.5   1.219  1.209    31.1 / 160  14.8   63  .02

NAKANO

         **** Don't distribute anyone except personal use only ****

                (C) Copyright 2002 OAA/ComputingSection

write mail from CFAD0::NAKANO on 2002-12-04 04:43:32(JST).

 

    C/2002 U2 (LINEAR)                                                    

T 2002 Dec. 31.98460 TT                                 Nakano

q   1.2086216            (2000.0)            P               Q

                   Peri.   95.84603     -0.39902661     -0.74282004

                   Node    38.77605     -0.03315725     -0.57420788

e   1.0            Incl.   59.13502     +0.91633965     -0.34424366

From 106 observations 2002 Oct. 25-Nov. 17.





NAKANO

         **** Don't distribute anyone except personal use only ****

                (C) Copyright 2002 OAA/ComputingSection

write mail from CFAD0::NAKANO on 2002-11-19 01:50:02(JST).

 

◎C/2002 U2の軌道と予報位置です



 前回の軌道(観測期間:10月25日-11月2日)からずれが大きく,たとえば

最後の上尾の門田健一氏の観測は,赤経で-52",赤緯で+52"もずれます.傾

斜角も 59゚で,楕円かなとも思ったのですが,単に軌道の精度が低かっただ

けのようで,まだ,放物線にフィットできます.なお,11月12日の久万の中

村彰正氏の CCD全光度は15.5等,13日の門田氏のそれは15.4等でした.



    C/2002 U2 (LINEAR) 

T 2002 Dec. 31.98792 TT                                 Nakano

q   1.2085822            (2000.0)            P               Q

                   Peri.   95.85027     -0.39908128     -0.74278854

                   Node    38.77623     -0.03320294     -0.57420739

e   1.0            Incl.   59.13517     +0.91631419     -0.34431244

From 103 observations 2002 Oct. 25-Nov. 13.

Residuals in seconds of arc 

2002/                     021027 349  0.1+  0.6+    021105 049 (2.2-  0.5+) 

021025 704  0.7-  0.1-    021027 349  0.0   0.4+    021105 049 (2.3-  1.1+) 

021025 704  1.6-  0.4+    021027 349  0.0   0.1-    021105 235 (2.4+  0.9-) 

021025 704  0.3-  0.4+    021027 349  0.2-  0.2-    021106 340  0.1+  0.3+  

021025 704  1.7-  0.9+    021029 049 (2.7-  0.5-)   021106 340  0.1-  0.5+  

021025 176  0.0   0.1+    021029 049  1.2-  0.2-    021106 340  0.4+  0.6-  

